QPF
0.00 0.00 0.00 0.00 0.00 0.00 0.00 0.00 0.00 0.00 0.02 0.04 0.11 0.15 0.28 0.13 0.10 0.04 0.01 0.00 0.00 0.00 0.00 0.00 0.00 0.00 0.00 0.00 0.00 0.00 0.00 0.00
0.00 0.00 0.00 0.00 0.00 0.00 0.00 0.00 0.00 0.00 0.01 0.03 0.11 0.18 0.31 0.28 0.16 0.06 0.01 0.00 0.00 0.00 0.00 0.00 0.00 0.00 0.00 0.00 0.00 0.00 0.00 0.00
0.00 0.00 0.00 0.00 0.00 0.00 0.00 0.00 0.00 0.00 0.00 0.00 0.04 0.10 0.19 0.21 0.14 0.05 0.01 0.01 0.00 0.00 0.00 0.00 0.00 0.00 0.00 0.00 0.00 0.00 0.00 0.00
0.00 0.00 0.00 0.00 0.00 0.00 0.00 0.00 0.00 0.00 0.00 0.00 0.01 0.02 0.04 0.07 0.07 0.04 0.01 0.00 0.00 0.00 0.00 0.00 0.00 0.00 0.00 0.00 0.00 0.00 0.00 0.00
0.00 0.00 0.00 0.00 0.00 0.00 0.00 0.00 0.00 0.00 0.00 0.00 0.00 0.01 0.01 0.01 0.01 0.02 0.02 0.00 0.00 0.01 0.01 0.00 0.00 0.00 0.00 0.00 0.00 0.00 0.00 0.00
0.00 0.00 0.00 0.00 0.00 0.00 0.00 0.00 0.00 0.00 0.00 0.00 0.00 0.00 0.00 0.00 0.00 0.01 0.01 0.01 0.01 0.00 0.00 0.01 0.00 0.00 0.00 0.00 0.00 0.00 0.00 0.00
0.00 0.00 0.00 0.00 0.00 0.00 0.00 0.00 0.00 0.00 0.00 0.00 0.00 0.00 0.00 0.00 0.00 0.00 0.00 0.00 0.01 0.01 0.01 0.01 0.00 0.00 0.00 0.00 0.00 0.00 0.00 0.01
0.00 0.00 0.00 0.00 0.00 0.00 0.00 0.00 0.00 0.00 0.00 0.00 0.00 0.00 0.00 0.00 0.00 0.00 0.00 0.00 0.00 0.01 0.01 0.00 0.00 0.00 0.00 0.01 0.02 0.02 0.03 0.05
0.00 0.00 0.00 0.00 0.00 0.00 0.00 0.00 0.00 0.00 0.00 0.00 0.00 0.00 0.00 0.00 0.00 0.00 0.00 0.00 0.00 0.00 0.00 0.00 0.01 0.00 0.01 0.06 0.05 0.03 0.03 0.04
0.00 0.00 0.00 0.00 0.00 0.00 0.00 0.00 0.00 0.00 0.00 0.00 0.00 0.00 0.00 0.00 0.00 0.00 0.00 0.00 0.00 0.00 0.00 0.00 0.00 0.00 0.00 0.02 0.02 0.01 0.01 0.03
0.00 0.00 0.00 0.00 0.00 0.00 0.00 0.00 0.00 0.00 0.00 0.00 0.00 0.00 0.00 0.00 0.00 0.00 0.00 0.00 0.00 0.00 0.00 0.00 0.01 0.01 0.00 0.00 0.00 0.00 0.01 0.01
0.00 0.00 0.00 0.00 0.00 0.00 0.00 0.00 0.00 0.00 0.00 0.00 0.00 0.00 0.00 0.00 0.00 0.00 0.00 0.00 0.00 0.00 0.00 0.00 0.00 0.00 0.00 0.00 0.00 0.00 0.00 0.00
0.00 0.00 0.00 0.00 0.00 0.00 0.00 0.00 0.00 0.00 0.00 0.00 0.00 0.00 0.00 0.00 0.00 0.00 0.00 0.00 0.00 0.00 0.00 0.00 0.00 0.00 0.00 0.00 0.00 0.00 0.00 0.02
0.00 0.00 0.00 0.00 0.00 0.00 0.00 0.00 0.00 0.00 0.00 0.00 0.00 0.00 0.00 0.00 0.00 0.00 0.00 0.00 0.00 0.00 0.00 0.00 0.00 0.00 0.00 0.00 0.00 0.00 0.01 0.01
0.00 0.00 0.00 0.00 0.00 0.00 0.00 0.00 0.00 0.00 0.00 0.00 0.00 0.00 0.00 0.00 0.00 0.00 0.00 0.00 0.00 0.00 0.00 0.00 0.00 0.00 0.00 0.00 0.00 0.00 0.00 0.01
0.00 0.00 0.00 0.00 0.00 0.00 0.00 0.00 0.00 0.00 0.00 0.00 0.00 0.00 0.00 0.00 0.00 0.00 0.00 0.00 0.00 0.00 0.00 0.00 0.00 0.00 0.00 0.01 0.03 0.02 0.03 0.03
0.00 0.00 0.00 0.00 0.00 0.00 0.00 0.00 0.00 0.00 0.00 0.00 0.00 0.00 0.00 0.00 0.00 0.00 0.00 0.00 0.00 0.00 0.00 0.00 0.00 0.00 0.02 0.03 0.03 0.02 0.05 0.06
0.00 0.00 0.00 0.00 0.00 0.00 0.00 0.00 0.00 0.00 0.00 0.00 0.00 0.00 0.00 0.00 0.00 0.00 0.00 0.00 0.00 0.00 0.00 0.01 0.01 0.01 0.05 0.02 0.03 0.01 0.02 0.02
0.00 0.00 0.00 0.00 0.00 0.00 0.00 0.00 0.00 0.00 0.00 0.00 0.00 0.00 0.00 0.00 0.00 0.00 0.00 0.00 0.01 0.01 0.01 0.01 0.02 0.04 0.05 0.02 0.01 0.00 0.00 0.01
MSLP
1003.35 1004.41 1005.76 1006.56 1007.55 1008.29 1008.64 1008.92 1008.92 1009.09 1008.92 1008.49 1008.67 1009.08 1009.94 1010.37 1011.74 1012.85 1013.57 1014.45 1015.34 1015.60 1016.27 1017.02 1017.22 1017.54 1018.10 1018.57 1018.67 1019.01 1019.34 1019.49
1003.20 1004.58 1005.84 1006.81 1007.59 1008.18 1008.58 1008.98 1009.33 1009.46 1009.32 1009.26 1009.22 1009.46 1010.28 1011.34 1012.46 1013.16 1014.19 1015.16 1015.82 1016.15 1016.95 1017.31 1017.47 1017.64 1018.35 1018.67 1019.08 1019.25 1019.69 1019.88
1002.88 1004.39 1005.58 1006.72 1007.48 1008.07 1008.46 1008.65 1009.05 1009.44 1009.66 1009.71 1009.86 1010.52 1011.27 1012.04 1013.12 1014.10 1014.95 1015.66 1016.13 1016.57 1016.90 1017.29 1017.68 1017.88 1018.42 1018.95 1019.32 1019.51 1020.10 1020.41
1002.08 1003.65 1005.10 1006.47 1007.24 1007.78 1008.33 1008.58 1009.05 1009.35 1010.10 1010.35 1010.69 1011.58 1012.38 1013.17 1014.05 1014.72 1015.30 1015.76 1016.12 1016.24 1016.56 1017.12 1017.55 1018.27 1018.61 1018.89 1019.36 1019.28 1019.91 1020.29
1001.09 1002.83 1004.14 1005.81 1006.61 1007.35 1008.11 1008.68 1009.14 1009.49 1009.77 1010.29 1010.90 1011.16 1012.12 1013.30 1013.89 1014.59 1015.21 1015.59 1015.50 1015.94 1016.55 1017.12 1017.45 1017.49 1018.10 1018.23 1018.87 1019.25 1019.18 1018.99
1000.16 1001.88 1003.25 1004.67 1006.20 1006.64 1007.67 1008.64 1009.16 1009.51 1009.90 1010.17 1010.76 1011.52 1012.23 1013.14 1014.01 1014.62 1014.82 1014.94 1015.18 1015.80 1015.97 1016.26 1017.05 1017.08 1017.79 1017.77 1018.65 1018.81 1018.80 1018.86
999.53 1001.14 1002.57 1003.84 1005.63 1006.53 1007.06 1008.10 1009.03 1009.55 1009.67 1010.14 1010.63 1011.24 1011.88 1012.79 1013.58 1014.16 1014.81 1015.18 1015.62 1015.83 1015.89 1016.01 1016.40 1016.98 1017.17 1017.62 1018.01 1018.26 1018.51 1018.59
998.86 1000.38 1001.88 1003.22 1004.63 1005.94 1006.60 1007.34 1008.44 1009.25 1009.57 1010.02 1010.54 1011.26 1011.56 1012.10 1012.86 1013.69 1014.45 1015.17 1015.69 1016.06 1016.20 1016.10 1016.36 1016.47 1016.78 1017.10 1017.50 1017.75 1018.02 1018.25
998.20 999.48 1000.78 1002.28 1003.55 1004.68 1005.74 1006.50 1007.24 1008.38 1009.28 1009.77 1010.29 1011.02 1011.49 1011.89 1012.24 1012.97 1013.68 1014.35 1014.93 1015.34 1015.69 1015.67 1015.78 1015.99 1016.40 1016.70 1016.99 1017.11 1017.62 1017.88
997.41 998.65 999.95 1001.25 1002.77 1003.58 1004.36 1005.33 1006.21 1007.12 1008.04 1009.20 1009.89 1010.49 1010.82 1011.22 1011.44 1012.00 1012.69 1013.30 1013.69 1014.24 1014.77 1015.06 1015.18 1015.31 1015.65 1015.91 1016.21 1016.56 1016.97 1016.99
996.76 997.68 999.21 1000.38 1001.82 1003.10 1004.20 1004.72 1005.12 1006.16 1006.96 1007.82 1008.66 1009.56 1010.05 1010.31 1010.59 1011.11 1011.52 1012.15 1012.68 1012.93 1013.54 1013.92 1014.22 1014.67 1015.04 1015.34 1015.66 1015.83 1016.12 1016.28
995.98 996.97 998.33 999.72 1000.82 1002.01 1003.35 1004.02 1004.48 1005.01 1006.02 1006.76 1007.53 1008.53 1009.19 1009.54 1009.86 1010.04 1010.68 1011.37 1011.81 1012.29 1012.75 1013.44 1013.82 1014.07 1014.36 1014.69 1014.81 1014.95 1015.11 1015.28
995.49 996.26 997.37 998.78 999.89 1000.84 1002.18 1003.24 1003.69 1004.21 1004.91 1005.80 1006.58 1007.25 1008.15 1008.85 1009.17 1009.70 1010.16 1010.55 1011.07 1011.56 1012.10 1012.43 1012.90 1013.22 1013.52 1013.72 1013.91 1014.00 1014.19 1014.32
995.28 995.87 996.60 997.75 998.96 999.92 1000.87 1002.09 1003.00 1003.64 1004.23 1004.83 1005.62 1006.13 1006.69 1007.47 1008.35 1009.03 1009.59 1010.21 1010.60 1011.07 1011.38 1011.68 1011.99 1012.34 1012.65 1012.83 1013.01 1013.15 1013.42 1013.67
995.00 995.52 996.04 996.80 997.99 998.99 999.88 1000.92 1001.97 1002.88 1003.60 1004.15 1004.80 1005.58 1006.06 1006.52 1007.22 1007.91 1008.67 1009.29 1009.87 1010.36 1010.71 1011.01 1011.37 1011.69 1011.86 1012.06 1012.16 1012.30 1012.82 1013.52
994.53 994.94 995.63 996.19 996.97 997.91 998.89 999.80 1000.89 1001.81 1002.64 1003.34 1003.94 1004.84 1005.64 1006.28 1006.76 1007.35 1007.95 1008.61 1009.20 1009.78 1010.21 1010.60 1011.05 1011.40 1011.58 1011.61 1011.82 1012.18 1012.45 1012.99
994.47 994.59 995.00 995.67 996.34 997.01 997.84 998.71 999.68 1000.67 1001.59 1002.36 1003.18 1004.01 1004.79 1005.59 1006.27 1006.87 1007.61 1008.26 1008.88 1009.57 1009.99 1010.39 1010.82 1012.27 1012.50 1012.33 1012.50 1012.96 1013.62 1014.25
994.19 994.41 994.64 995.00 995.58 996.35 997.08 998.08 999.06 999.85 1000.76 1001.51 1002.39 1003.30 1004.25 1005.01 1005.83 1006.64 1007.36 1007.92 1008.59 1010.18 1011.20 1011.91 1012.80 1013.42 1013.30 1013.37 1013.79 1014.41 1015.08 1015.85
994.48 994.54 994.55 994.55 995.03 995.60 996.48 997.41 998.54 999.64 1000.43 1001.20 1001.91 1002.69 1003.59 1004.69 1005.60 1006.63 1008.11 1009.20 1010.40 1011.52 1012.50 1013.25 1013.94 1014.75 1014.90 1014.91 1015.14 1015.73 1016.41 1017.15
Thickness
5685 5677 5664 5656 5645 5637 5634 5635 5637 5637 5634 5638 5634 5632 5626 5627 5623 5620 5618 5617 5612 5611 5609 5605 5606 5607 5605 5604 5605 5605 5605 5605
5685 5674 5661 5652 5643 5637 5634 5631 5631 5632 5632 5630 5629 5628 5624 5619 5615 5613 5609 5606 5604 5605 5600 5600 5603 5604 5599 5598 5596 5597 5596 5598
5683 5672 5661 5651 5643 5636 5633 5632 5630 5630 5630 5629 5628 5622 5616 5613 5607 5603 5599 5598 5597 5597 5598 5598 5597 5597 5594 5592 5591 5591 5589 5586
5685 5675 5664 5652 5645 5639 5634 5632 5628 5628 5624 5621 5620 5614 5608 5603 5597 5595 5594 5594 5593 5596 5597 5593 5592 5588 5586 5588 5584 5587 5582 5582
5692 5679 5671 5656 5650 5643 5635 5630 5626 5623 5624 5621 5615 5616 5609 5602 5598 5594 5591 5590 5594 5594 5591 5589 5588 5589 5587 5587 5585 5585 5587 5590
5696 5684 5676 5667 5654 5650 5640 5630 5626 5623 5620 5619 5616 5611 5607 5602 5596 5591 5591 5593 5592 5589 5591 5592 5587 5589 5585 5589 5583 5585 5586 5588
5700 5690 5680 5672 5658 5650 5645 5634 5625 5621 5621 5617 5614 5611 5608 5602 5596 5592 5588 5588 5587 5587 5588 5590 5586 5585 5588 5586 5586 5586 5587 5589
5700 5690 5680 5673 5663 5654 5648 5641 5630 5623 5621 5618 5614 5609 5608 5604 5599 5592 5587 5584 5583 5582 5583 5587 5586 5588 5587 5587 5587 5587 5587 5587
5703 5697 5689 5679 5669 5663 5656 5649 5642 5631 5623 5620 5617 5612 5609 5606 5603 5598 5593 5590 5587 5586 5586 5587 5587 5588 5587 5587 5588 5588 5586 5586
5706 5701 5694 5686 5675 5670 5666 5659 5652 5644 5635 5625 5619 5616 5614 5611 5611 5607 5602 5598 5598 5594 5591 5590 5591 5592 5592 5593 5591 5590 5587 5589
5707 5705 5695 5691 5681 5672 5665 5661 5658 5650 5644 5635 5629 5623 5620 5619 5617 5613 5611 5609 5606 5605 5601 5599 5598 5596 5594 5593 5591 5591 5588 5588
5708 5706 5699 5692 5686 5677 5667 5663 5659 5655 5646 5642 5636 5628 5624 5622 5619 5620 5616 5612 5610 5608 5605 5600 5598 5597 5595 5593 5593 5593 5591 5590
5708 5707 5702 5693 5687 5682 5671 5664 5662 5658 5653 5646 5640 5636 5630 5624 5622 5619 5618 5615 5613 5611 5607 5605 5602 5600 5597 5596 5595 5594 5592 5590
5703 5703 5700 5694 5688 5683 5677 5669 5661 5659 5654 5651 5646 5643 5640 5633 5627 5623 5620 5616 5612 5609 5607 5605 5603 5601 5599 5598 5597 5596 5592 5589
5697 5697 5697 5696 5690 5685 5680 5673 5667 5659 5655 5650 5647 5642 5639 5637 5633 5629 5623 5618 5613 5609 5607 5605 5603 5601 5600 5599 5598 5596 5590 5582
5696 5696 5694 5694 5692 5689 5683 5678 5671 5664 5657 5652 5648 5642 5638 5635 5631 5627 5623 5619 5613 5609 5606 5604 5600 5598 5597 5597 5593 5588 5584 5578
5691 5694 5694 5691 5690 5688 5684 5680 5674 5669 5660 5654 5650 5645 5639 5633 5628 5624 5619 5615 5611 5605 5602 5600 5596 5582 5577 5578 5576 5571 5563 5555
5688 5689 5690 5690 5690 5688 5683 5678 5674 5670 5663 5658 5652 5645 5638 5633 5627 5620 5616 5612 5607 5593 5584 5577 5569 5563 5562 5560 5555 5548 5540 5530
5676 5682 5685 5690 5690 5688 5684 5679 5671 5664 5659 5655 5652 5647 5640 5632 5626 5618 5603 5593 5582 5573 5565 5558 5551 5543 5541 5539 5535 5527 5518 5509